This demonstration page uses our WeatherBlox Daily Observations layout. Learn more.

Left ArrowRight Arrow

41.12389, -100.76542

Hourly Observations for August 21, 2019

Temp ( °F °C ) Dew Point ( °F °C ) Humidity (%) Winds ( mph kmh ) Pressure ( in mb ) Visibility ( mi km ) Precip ( " mm )
12:19 am 00:19 Mostly Cloudy 76 24.4 72 22.2 88 88 E 10 17 29.91 1013 10 16 0.00 0.00
12:30 am 00:30 Mostly Cloudy 76 24.4 72 22.2 88 88 E 12 19 29.90 1012 10 16 0.00 0.00
12:53 am 00:53 Mostly Cloudy 75 23.9 71 21.7 88 88 E 13 20 29.92 1013 10 16 0.00 0.00
1:10 am 01:10 Mostly Cloudy 75 23.9 71 21.7 88 88 E 8 13 29.86 1011 10 16 0.00 0.00
1:46 am 01:46 Cloudy 75 23.9 71 21.7 88 88 E 8 13 29.85 1011 10 16 0.00 0.00
1:53 am 01:53 Mostly Cloudy 74 23.3 71 21.7 91 91 ENE 10 17 29.90 1013 10 16 0.00 0.00
2:37 am 02:37 Cloudy 74 23.3 70 21.1 88 88 ENE 10 17 29.87 1011 10 16 0.00 0.00
2:53 am 02:53 Cloudy 74 23.3 70 21.1 88 88 ENE 12 19 29.91 1013 10 16 0.00 0.00
3:05 am 03:05 Cloudy 74 23.3 69 20.6 85 85 ENE 14 22 29.88 1012 10 16 0.00 0.00
3:45 am 03:45 Cloudy with Heavy Rain 67 19.4 62 16.7 84 84 NW 40 65 29.99 1015 3 4 0.00 0.00
3:48 am 03:48 Cloudy with Nearby Thunderstorms 64 18 63 17 94 94 NNW 37 59 30.00 1016 2 3 0.03 0.76
3:53 am 03:53 Cloudy with Nearby Thunderstorms 64 17.8 62 16.7 93 93 NNW 28 44 30.00 1016 2 2 0.13 3.30
3:55 am 03:55 Cloudy with Strong Thunderstorms 64 17.8 62 16.7 93 93 NNW 24 39 30.00 1016 2 3 0.08 2.03
4:04 am 04:04 Cloudy with Strong Thunderstorms 64 17.8 62 16.7 93 93 NNW 16 26 29.99 1016 3 5 0.32 8.13
4:31 am 04:31 Cloudy with Nearby Thunderstorms 65 18.3 63 17.2 93 93 W 12 19 30.01 1016 10 16 0.61 15.49
4:41 am 04:41 Cloudy with Thunderstorms 65 18.3 62 16.7 90 90 W 8 13 30.01 1016 10 16 0.61 15.49
4:53 am 04:53 Cloudy with Thunderstorms 66 18.9 62 16.7 87 87 Calm 30.03 1017 10 16 0.61 15.49
5:20 am 05:20 Cloudy with Nearby Thunderstorms 67 19.4 62 16.7 84 84 N 12 19 30.00 1016 10 16 0.00 0.00
5:33 am 05:33 Cloudy with Rain 67 19.4 62 16.7 84 84 N 15 24 29.98 1015 10 16 0.00 0.00
5:53 am 05:53 Cloudy with Light Rain 67 19.4 63 17.2 87 87 N 7 11 29.98 1015 10 16 0.02 0.51
6:10 am 06:10 Mostly Cloudy with Nearby Thunderstorms 67 19.4 63 17.2 87 87 ESE 6 9 29.99 1015 10 16 0.00 0.00
6:43 am 06:43 Mostly Clear with Light Rain 66 18.9 64 17.8 93 93 SE 7 11 29.99 1016 10 16 0.00 0.00
6:53 am 06:53 Mostly Cloudy 66 18.9 63 17.2 90 90 NE 6 9 30.01 1016 10 16 0.00 0.00
7:08 am 07:08 Mostly Cloudy 66 18.9 63 17.2 90 90 ENE 7 11 30.00 1016 10 16 0.00 0.00
7:17 am 07:17 Mostly Cloudy with Light Rain 66 18.9 63 17.2 90 90 ENE 7 11 29.99 1016 10 16 0.00 0.00
7:26 am 07:26 Mostly Cloudy 65 18.3 63 17.2 93 93 NE 8 13 29.99 1015 10 16 0.00 0.00
7:53 am 07:53 Mostly Sunny 66 18.9 63 17.2 90 90 ENE 10 17 29.98 1015 10 16 0.00 0.00
8:53 am 08:53 Sunny 68 20 63 17.2 84 84 SE 12 19 30.00 1016 10 16 0.00 0.00
9:19 am 09:19 Mostly Cloudy 68 20 63 17.2 84 84 SSE 8 13 30.00 1016 10 16 0.00 0.00
9:38 am 09:38 Cloudy 68 20 64 17.8 87 87 SE 5 7 30.00 1016 10 16 0.00 0.00
9:53 am 09:53 Cloudy 69 20.6 64 17.8 84 84 Calm 30.03 1017 10 16 0.00 0.00
10:41 am 10:41 Partly Cloudy 73 22.8 64 17.8 74 74 NNE 3 6 29.99 1016 10 16 0.00 0.00
10:53 am 10:53 Mostly Sunny 73 22.8 64 17.8 74 74 Calm 30.06 1018 10 16 0.00 0.00
11:26 am 11:26 Cloudy 72 22.2 64 17.8 76 76 N 3 6 30.01 1016 10 16 0.00 0.00
12:29 pm 12:29 Cloudy 75 23.9 64 17.8 69 69 Calm 29.98 1015 10 16 0.00 0.00
12:53 pm 12:53 Cloudy 75 23.9 64 17.8 69 69 Calm 30.04 1017 10 16 0.00 0.00
1:53 pm 13:53 Cloudy 77 25 65 18.3 66 66 S 5 7 30.02 1017 10 16 0.00 0.00
2:18 pm 14:18 Cloudy 77 25 65 18.3 66 66 Calm 29.94 1014 10 16 0.00 0.00
2:32 pm 14:32 Cloudy 78 25.6 64 17.8 62 62 E 3 6 29.94 1014 10 16 0.00 0.00
2:53 pm 14:53 Cloudy 78 25.6 64 17.8 62 62 SE 5 7 30.01 1016 10 16 0.00 0.00
3:53 pm 15:53 Mostly Cloudy 79 26.1 64 17.8 60 60 E 3 6 30.01 1016 10 16 0.00 0.00
4:53 pm 16:53 Cloudy 80 26.7 64 17.8 58 58 ENE 7 11 29.99 1016 10 16 0.00 0.00
5:53 pm 17:53 Partly Cloudy 81 27.2 64 17.8 57 57 E 14 22 29.97 1015 10 16 0.00 0.00
6:53 pm 18:53 Sunny 76 24.4 65 18.3 69 69 SE 10 17 29.98 1015 10 16 0.00 0.00
7:53 pm 19:53 Sunny 73 22.8 64 17.8 74 74 SE 10 17 30.00 1016 10 16 0.00 0.00
8:53 pm 20:53 Clear 69 20.6 63 17.2 81 81 SSE 6 9 30.02 1017 10 16 0.00 0.00
9:53 pm 21:53 Clear 66 18.9 63 17.2 90 90 SE 8 13 30.03 1017 10 16 0.00 0.00
10:53 pm 22:53 Clear 64 17.8 62 16.7 93 93 ESE 5 7 30.04 1017 10 16 0.00 0.00
11:53 pm 23:53 Clear 63 17.2 61 16.1 93 93 ESE 5 7 30.05 1018 10 16 0.00 0.00

Powered by AerisWeather